Regional Weather Roundup
Issued by NWS

Home | Current Version | Previous Version | Graphics & Text | Print | Product List | Glossary On
Versions: 1 2 3 4 5 6 7 8 9 10 11 12 13 14 15 16 17 18 19 20 21 22 23 24 25 26 27 28 29 30 31 32 33 34 35 36 37 38 39 40 41 42 43 44 45 46 47 48 49 50
000
ASUS43 KBIS 181802
RWRND

NORTH DAKOTA REGIONAL WEATHER ROUNDUP
NATIONAL WEATHER SERVICE BISMARCK ND
100 PM CDT MON SEP 18 2017

NOTE: "FAIR" INDICATES FEW OR NO CLOUDS BELOW 12,000 FEET WITH NO
SIGNIFICANT WEATHER AND/OR OBSTRUCTIONS TO VISIBILITY.


NDZ001>003-009>011-017-181900-
NORTHWEST NORTH DAKOTA

CITY           SKY/WX    TMP DP  RH WIND       PRES   REMARKS
WILLISTON      SUNNY     68  47  46 SE8       29.78F
6HR MIN TEMP:  38; 6HR MAX TEMP:  68;

MINOT          SUNNY     68  49  50 VRB5      29.83F
$$

NDZ018>021-031>035-040>046-181900-
SOUTHWEST NORTH DAKOTA

CITY           SKY/WX    TMP DP  RH WIND       PRES   REMARKS
BISMARCK       SUNNY     65  52  62 CALM      29.85F
6HR MIN TEMP:  42; 6HR MAX TEMP:  65;

DICKINSON      SUNNY     72  36  26 S7        29.81F
GARRISON         N/A     64  50  60 VRB5      29.84F
6HR MIN TEMP:  41; 6HR MAX TEMP:  64;

HETTINGER ARPT SUNNY     73  34  23 SW8       29.85F
$$

NDZ004>008-012>016-024-026-027-054-181900-
NORTHEAST NORTH DAKOTA

CITY           SKY/WX    TMP DP  RH WIND       PRES   REMARKS
GRAND FORKS    MOSUNNY   65  52  62 SE8       29.88F
DEVILS LAKE    SUNNY     63  50  62 SE10      29.87F
$$

NDZ022-023-025-028>030-036>039-047>053-181900-
SOUTHEAST NORTH DAKOTA

CITY           SKY/WX    TMP DP  RH WIND       PRES   REMARKS
FARGO          SUNNY     70  53  54 S15       29.86F
6HR MIN TEMP:  51; 6HR MAX TEMP:  71; 6HR PCP: TRACE;

JAMESTOWN      SUNNY     65  53  65 VRB7      29.84F
$$





USA.gov is the U.S. government's official web portal to all federal, state and local government web resources and services.